Flugplatz Friedrichshafen

Bericht für EDNY

vom 26.09. um 23:50 UTC

Wind 14 kt aus 240°

Sichtweite 10 km oder mehr

gering bewölkt in 2300 ft

aufgebrochene Bewölkung in 3100 ft

bedeckt in 4200 ft

Temperatur 8.0°C

Taupunkt 4.0°C

Luftfeuchtigkeit 76%

Luftdruck 1004 hPa

EDNY 262350Z AUTO 24014KT 9999 // FEW023/// BKN031/// OVC042/// 08/04 Q1004

Prognose für EDNY

vom 26.09. um 23:00 UTC

Zwischen 00:00 UTC und 05:00 UTC

Wind 10 kt aus 240°

Sichtweite 10 km oder mehr

aufgebrochene Bewölkung in 2500 ft


Zwischen 05:00 UTC und 17:00 UTC

Wind 5 kt aus 230°

Sichtweite 10 km oder mehr

gering bewölkt in 6000 ft


Zwischen 17:00 und 19:00 UTC übergehend zu

variable Windrichtung mit 2 kt

Sichtweite 10 km oder mehr

gering bewölkt in 6000 ft

TAF EDNY 262300Z 2700/2724 24010KT 9999 BKN025 FM270500 23005KT 9999 FEW060 BECMG 2717/2719 VRB02KT
Impressum